| time (UTC) | temp F | wind direction | speed MPH | gust MPH | rain 1hr in | rain 24hr in | rain mn in | humidity % | barometer mb |
| 20260504175346 | 44 | 58 | 0.0 | 0.0 | 0.00 | 0.98 | 0.00 | 80 | 1019.4 |
| 20260504174823 | 44 | 58 | 0.0 | 1.0 | 0.00 | 0.98 | 0.00 | 79 | 1019.3 |
| 20260504174321 | 44 | 58 | 0.0 | 1.0 | 0.00 | 0.98 | 0.00 | 78 | 1019.2 |
| 20260504173819 | 45 | 58 | 0.0 | 1.0 | 0.00 | 0.98 | 0.00 | 77 | 1019.2 |
| 20260504173317 | 45 | 55 | 0.0 | 0.0 | 0.00 | 0.98 | 0.00 | 76 | 1019.2 |
| 20260504172814 | 45 | 55 | 0.0 | 1.0 | 0.00 | 0.98 | 0.00 | 76 | 1019.1 |
| 20260504172334 | 45 | 55 | 0.0 | 1.0 | 0.00 | 0.98 | 0.00 | 75 | 1019.1 |
| 20260504171832 | 46 | 55 | 0.0 | 1.0 | 0.00 | 1.38 | 0.00 | 75 | 1019.1 |
| 20260504171332 | 46 | 55 | 0.0 | 3.0 | 0.00 | 1.38 | 0.00 | 74 | 1019.0 |
| 20260504170831 | 46 | 55 | 1.0 | 3.0 | 0.00 | 1.38 | 0.00 | 74 | 1019.0 |
| 20260504170330 | 46 | 56 | 0.0 | 4.0 | 0.00 | 1.38 | 0.00 | 74 | 1018.9 |
| 20260504160315 | 47 | 86 | 4.0 | 10.0 | 0.00 | 1.50 | 0.00 | 76 | 1018.4 |
| 20260504150845 | 46 | 49 | 5.0 | 14.0 | 0.00 | 1.50 | 0.30 | 78 | 1018.3 |
| 20260504150322 | 46 | 330 | 6.0 | 12.0 | 0.00 | 1.50 | 0.30 | 78 | 1018.3 |
| 20260504141327 | 47 | 53 | 8.0 | 18.0 | 0.00 | 1.50 | 0.30 | 79 | 1017.4 |
| 20260504140825 | 47 | 116 | 7.0 | 18.0 | 0.00 | 1.50 | 0.30 | 79 | 1017.2 |
| 20260504140327 | 46 | 42 | 9.0 | 21.0 | 0.00 | 1.50 | 0.30 | 79 | 1017.0 |
| 20260504130347 | 49 | 48 | 11.0 | 29.0 | 0.00 | 1.54 | 0.30 | 78 | 1015.9 |
| 20260504110317 | 53 | 55 | 10.0 | 25.0 | 0.00 | 1.65 | 0.30 | 76 | 1011.5 |
| 20260504100317 | 55 | 46 | 7.0 | 20.0 | 0.00 | 1.81 | 0.30 | 73 | 1009.8 |
| 20260504081824 | 64 | 303 | 3.0 | 9.0 | 0.00 | 1.81 | 0.30 | 52 | 1006.9 |
| 20260504081323 | 64 | 34 | 1.0 | 14.0 | 0.00 | 1.81 | 0.30 | 54 | 1006.8 |
| 20260504080821 | 64 | 85 | 6.0 | 16.0 | 0.00 | 1.81 | 0.30 | 55 | 1006.6 |
| 20260504080325 | 64 | 52 | 5.0 | 17.0 | 0.00 | 1.81 | 0.30 | 55 | 1006.0 |
| 20260504070322 | 66 | 46 | 3.0 | 9.0 | 0.00 | 1.81 | 0.30 | 59 | 1004.3 |
| 20260504050331 | 65 | 91 | 9.0 | 16.0 | 0.00 | 1.81 | 0.30 | 68 | 1002.4 |
| 20260504045830 | 66 | 15 | 9.0 | 17.0 | 0.00 | 1.81 | 0.30 | 69 | 1002.4 |
| 20260504045350 | 66 | 30 | 7.0 | 18.0 | 0.00 | 1.81 | 0.30 | 70 | 1002.3 |
| 20260504044827 | 66 | 74 | 10.0 | 18.0 | 0.00 | 1.81 | 0.30 | 70 | 1002.4 |
| 20260504044324 | 65 | 173 | 12.0 | 17.0 | 0.00 | 1.81 | 0.30 | 70 | 1002.4 |
| 20260504043823 | 66 | 103 | 7.0 | 18.0 | 0.00 | 1.81 | 0.30 | 70 | 1002.3 |
| 20260504043321 | 66 | 21 | 11.0 | 18.0 | 0.00 | 1.81 | 0.30 | 70 | 1002.3 |
| 20260504042819 | 67 | 99 | 11.0 | 18.0 | 0.00 | 1.81 | 0.30 | 70 | 1002.3 |
| 20260504042317 | 67 | 119 | 11.0 | 17.0 | 0.00 | 1.81 | 0.30 | 70 | 1002.2 |
| 20260504041838 | 67 | 31 | 11.0 | 17.0 | 0.00 | 1.81 | 0.30 | 71 | 1002.1 |
| 20260504041314 | 66 | 53 | 10.0 | 20.0 | 0.00 | 1.81 | 0.30 | 73 | 1001.9 |
| 20260504040815 | 66 | 86 | 10.0 | 20.0 | 0.00 | 1.81 | 0.30 | 73 | 1001.7 |
| 20260504040314 | 66 | 49 | 9.0 | 20.0 | 0.00 | 1.81 | 0.30 | 72 | 1001.8 |
| 20260504035812 | 67 | 24 | 9.0 | 20.0 | 0.00 | 1.81 | 0.30 | 72 | 1001.4 |
| 20260504035331 | 67 | 41 | 13.0 | 20.0 | 0.00 | 1.81 | 0.30 | 70 | 1001.5 |
| 20260504034830 | 68 | 332 | 9.0 | 20.0 | 0.00 | 1.81 | 0.30 | 71 | 1001.5 |
| 20260504034329 | 68 | 30 | 9.0 | 16.0 | 0.00 | 1.81 | 0.30 | 72 | 1001.6 |
| 20260504033828 | 68 | 304 | 7.0 | 19.0 | 0.00 | 1.81 | 0.30 | 72 | 1001.5 |
| 20260504033327 | 68 | 46 | 8.0 | 17.0 | 0.00 | 1.81 | 0.30 | 72 | 1001.4 |
| 20260504032825 | 68 | 82 | 8.0 | 18.0 | 0.00 | 1.81 | 0.30 | 73 | 1001.5 |
| 20260504032323 | 68 | 43 | 11.0 | 18.0 | 0.00 | 1.81 | 0.30 | 71 | 1001.5 |
| 20260504031821 | 68 | 7 | 8.0 | 17.0 | 0.00 | 1.81 | 0.30 | 72 | 1001.7 |
| 20260504031339 | 68 | 33 | 10.0 | 17.0 | 0.00 | 1.81 | 0.30 | 72 | 1001.7 |
| 20260504030817 | 68 | 56 | 6.0 | 16.0 | 0.00 | 1.81 | 0.30 | 74 | 1001.8 |
| 20260504030315 | 68 | 18 | 7.0 | 15.0 | 0.00 | 1.81 | 0.30 | 72 | 1001.8 |
| 20260504025812 | 68 | 77 | 6.0 | 19.0 | 0.00 | 1.81 | 0.30 | 73 | 1001.8 |
| 20260504025313 | 68 | 125 | 11.0 | 19.0 | 0.00 | 1.81 | 0.30 | 71 | 1001.7 |
| 20260504024853 | 68 | 338 | 5.0 | 16.0 | 0.00 | 1.81 | 0.30 | 73 | 1001.8 |
| 20260504024331 | 68 | 15 | 7.0 | 14.0 | 0.00 | 1.81 | 0.30 | 74 | 1001.8 |
| 20260504023813 | 68 | 91 | 9.0 | 15.0 | 0.00 | 1.81 | 0.30 | 74 | 1001.7 |
| 20260504023349 | 68 | 51 | 5.0 | 13.0 | 0.00 | 1.81 | 0.30 | 74 | 1001.9 |
| 20260504022828 | 68 | 84 | 4.0 | 10.0 | 0.00 | 1.81 | 0.30 | 75 | 1002.0 |
| 20260504022329 | 68 | 311 | 6.0 | 13.0 | 0.00 | 1.81 | 0.30 | 72 | 1002.1 |
| 20260504021828 | 68 | 83 | 6.0 | 14.0 | 0.00 | 1.81 | 0.30 | 74 | 1002.1 |
| 20260504021326 | 68 | 23 | 8.0 | 14.0 | 0.00 | 1.81 | 0.30 | 73 | 1002.2 |
| 20260504020824 | 68 | 343 | 7.0 | 13.0 | 0.00 | 1.81 | 0.30 | 73 | 1002.3 |
| 20260504020322 | 69 | 65 | 5.0 | 16.0 | 0.00 | 1.81 | 0.30 | 74 | 1002.5 |
| 20260504015820 | 69 | 330 | 7.0 | 16.0 | 0.00 | 1.81 | 0.30 | 73 | 1002.2 |
| 20260504015317 | 68 | 42 | 6.0 | 14.0 | 0.00 | 1.81 | 0.30 | 74 | 1002.4 |
| 20260504014837 | 68 | 24 | 3.0 | 13.0 | 0.00 | 1.81 | 0.30 | 74 | 1002.3 |
| 20260504014314 | 68 | 131 | 4.0 | 13.0 | 0.00 | 1.81 | 0.30 | 74 | 1002.3 |
| 20260504013814 | 68 | 347 | 4.0 | 14.0 | 0.00 | 1.81 | 0.30 | 74 | 1002.5 |
| 20260504013312 | 68 | 20 | 4.0 | 14.0 | 0.00 | 1.81 | 0.30 | 75 | 1002.4 |
| 20260504012831 | 68 | 36 | 5.0 | 13.0 | 0.00 | 1.81 | 0.30 | 75 | 1002.7 |
| 20260504012330 | 68 | 10 | 6.0 | 13.0 | 0.00 | 1.81 | 0.30 | 75 | 1002.7 |
| 20260504011849 | 68 | 17 | 3.0 | 11.0 | 0.00 | 1.81 | 0.30 | 76 | 1003.0 |
| 20260504011347 | 67 | 69 | 6.0 | 13.0 | 0.00 | 1.81 | 0.30 | 76 | 1003.0 |
| 20260504010824 | 66 | 65 | 4.0 | 13.0 | 0.00 | 1.81 | 0.30 | 77 | 1003.1 |
| 20260504010322 | 66 | 31 | 5.0 | 13.0 | 0.00 | 1.81 | 0.30 | 78 | 1003.4 |
| 20260504005821 | 66 | 75 | 6.0 | 13.0 | 0.00 | 1.81 | 0.30 | 78 | 1003.5 |
| 20260504005323 | 66 | 27 | 4.0 | 14.0 | 0.00 | 1.81 | 0.30 | 79 | 1003.2 |
| 20260504004822 | 66 | 19 | 7.0 | 14.0 | 0.00 | 1.81 | 0.30 | 78 | 1003.5 |
| 20260504004321 | 66 | 261 | 2.0 | 10.0 | 0.00 | 1.81 | 0.30 | 80 | 1003.4 |
| 20260504003841 | 65 | 44 | 5.0 | 15.0 | 0.00 | 1.81 | 0.30 | 80 | 1003.3 |
| 20260504003319 | 65 | 128 | 7.0 | 15.0 | 0.00 | 1.81 | 0.30 | 79 | 1003.1 |
| 20260504002838 | 65 | 2 | 4.0 | 13.0 | 0.00 | 1.81 | 0.30 | 79 | 1003.2 |
| 20260504002336 | 65 | 68 | 6.0 | 13.0 | 0.00 | 1.81 | 0.30 | 81 | 1003.1 |
| 20260504001835 | 65 | 60 | 5.0 | 12.0 | 0.00 | 1.81 | 0.30 | 82 | 1003.0 |
| 20260504001332 | 64 | 87 | 4.0 | 11.0 | 0.00 | 1.81 | 0.30 | 83 | 1003.0 |
| 20260504000830 | 64 | 51 | 6.0 | 11.0 | 0.00 | 1.81 | 0.30 | 83 | 1003.0 |
| 20260504000349 | 64 | 22 | 5.0 | 13.0 | 0.00 | 1.81 | 0.30 | 83 | 1003.0 |
| 20260503235827 | 63 | 37 | 5.0 | 13.0 | 0.00 | 1.81 | 0.30 | 83 | 1002.9 |
| 20260503235326 | 64 | 39 | 4.0 | 11.0 | 0.00 | 1.81 | 0.30 | 84 | 1002.8 |
| 20260503234824 | 63 | 50 | 5.0 | 11.0 | 0.00 | 1.81 | 0.30 | 85 | 1003.0 |
| 20260503234322 | 63 | 44 | 3.0 | 15.0 | 0.00 | 1.81 | 0.30 | 85 | 1003.0 |
| 20260503233822 | 62 | 126 | 8.0 | 15.0 | 0.00 | 1.81 | 0.30 | 85 | 1003.1 |
| 20260503233321 | 62 | 58 | 7.0 | 12.0 | 0.00 | 1.81 | 0.30 | 86 | 1003.2 |
| 20260503232820 | 62 | 133 | 6.0 | 10.0 | 0.00 | 1.81 | 0.30 | 86 | 1003.1 |
| 20260503232316 | 62 | 58 | 3.0 | 8.0 | 0.00 | 1.81 | 0.30 | 87 | 1003.1 |
| 20260503231813 | 62 | 42 | 4.0 | 9.0 | 0.00 | 1.81 | 0.30 | 88 | 1003.2 |
| 20260503231333 | 62 | 73 | 5.0 | 10.0 | 0.00 | 1.81 | 0.30 | 88 | 1003.1 |
| 20260503230851 | 62 | 105 | 6.0 | 10.0 | 0.00 | 1.81 | 0.30 | 88 | 1002.8 |
| 20260503230313 | 62 | 42 | 3.0 | 12.0 | 0.00 | 1.81 | 0.30 | 90 | 1003.0 |
| 20260503225812 | 62 | 21 | 6.0 | 12.0 | 0.00 | 1.81 | 0.30 | 90 | 1003.0 |
| 20260503225352 | 61 | 35 | 4.0 | 9.0 | 0.00 | 1.81 | 0.30 | 91 | 1002.7 |
| 20260503224830 | 61 | 57 | 1.0 | 8.0 | 0.00 | 1.81 | 0.30 | 92 | 1002.5 |
| 20260503224327 | 61 | 354 | 4.0 | 8.0 | 0.00 | 1.81 | 0.30 | 93 | 1002.5 |
| 20260503223825 | 60 | 70 | 3.0 | 10.0 | 0.00 | 1.81 | 0.30 | 93 | 1002.4 |
| 20260503223323 | 60 | 49 | 7.0 | 10.0 | 0.00 | 1.81 | 0.30 | 93 | 1002.5 |
| 20260503222823 | 60 | 44 | 4.0 | 9.0 | 0.00 | 1.81 | 0.30 | 94 | 1002.5 |
| 20260503222321 | 60 | 58 | 1.0 | 7.0 | 0.00 | 1.81 | 0.30 | 94 | 1002.7 |
| 20260503221821 | 60 | 101 | 3.0 | 6.0 | 0.04 | 1.81 | 0.30 | 95 | 1002.6 |
| 20260503221319 | 60 | 78 | 3.0 | 6.0 | 0.04 | 1.81 | 0.30 | 95 | 1002.5 |
| 20260503220818 | 60 | 32 | 1.0 | 3.0 | 0.08 | 1.81 | 0.30 | 95 | 1002.6 |
| 20260503220317 | 60 | 13 | 1.0 | 3.0 | 0.12 | 1.81 | 0.30 | 95 | 1002.2 |
| 20260503215815 | 60 | 39 | 1.0 | 3.0 | 0.16 | 1.81 | 0.30 | 95 | 1002.2 |
| 20260503215335 | 60 | 47 | 0.0 | 2.0 | 0.16 | 1.81 | 0.30 | 95 | 1002.2 |
| 20260503214833 | 60 | 46 | 1.0 | 2.0 | 0.20 | 1.81 | 0.30 | 95 | 1002.1 |
| 20260503214352 | 60 | 33 | 0.0 | 3.0 | 0.24 | 1.81 | 0.30 | 95 | 1002.1 |
| 20260503213827 | 60 | 61 | 1.0 | 3.0 | 0.31 | 1.81 | 0.30 | 94 | 1001.9 |
| 20260503213325 | 60 | 33 | 1.0 | 2.0 | 0.31 | 1.81 | 0.30 | 94 | 1002.2 |
| 20260503212824 | 60 | 6 | 0.0 | 3.0 | 0.35 | 1.81 | 0.30 | 95 | 1002.1 |
| 20260503212327 | 60 | 32 | 1.0 | 3.0 | 0.47 | 1.81 | 0.30 | 95 | 1002.1 |
| 20260503211826 | 60 | 330 | 1.0 | 1.0 | 0.51 | 1.77 | 0.29 | 94 | 1002.3 |
| 20260503211324 | 60 | 221 | 0.0 | 2.0 | 0.67 | 1.77 | 0.29 | 95 | 1002.6 |
| 20260503210821 | 60 | 254 | 0.0 | 1.0 | 0.75 | 1.73 | 0.28 | 94 | 1002.2 |
| 20260503210321 | 60 | 53 | 0.0 | 1.0 | 0.75 | 1.69 | 0.28 | 94 | 1002.2 |
| 20260503205819 | 60 | 53 | 0.0 | 2.0 | 0.75 | 1.65 | 0.27 | 94 | 1002.2 |
| 20260503205319 | 60 | 53 | 1.0 | 2.0 | 0.75 | 1.65 | 0.27 | 95 | 1001.9 |
| 20260503204840 | 60 | 49 | 0.0 | 2.0 | 0.71 | 1.61 | 0.26 | 95 | 1001.9 |
| 20260503204318 | 60 | 169 | 0.0 | 2.0 | 0.67 | 1.54 | 0.24 | 95 | 1001.8 |
| 20260503203817 | 60 | 91 | 0.0 | 2.0 | 0.63 | 1.50 | 0.24 | 95 | 1002.1 |
| 20260503203315 | 59 | 92 | 0.0 | 5.0 | 0.63 | 1.50 | 0.24 | 95 | 1002.1 |
| 20260503202813 | 59 | 58 | 2.0 | 5.0 | 0.59 | 1.46 | 0.23 | 94 | 1001.6 |
| 20260503202312 | 59 | 65 | 1.0 | 3.0 | 0.47 | 1.34 | 0.20 | 94 | 1001.8 |
| 20260503201812 | 59 | 63 | 1.0 | 2.0 | 0.39 | 1.26 | 0.19 | 94 | 1002.0 |
| 20260503201332 | 60 | 5 | 0.0 | 3.0 | 0.24 | 1.10 | 0.16 | 93 | 1002.2 |
| 20260503200814 | 60 | 18 | 0.0 | 3.0 | 0.12 | 0.98 | 0.13 | 93 | 1002.0 |
| 20260503200312 | 60 | 41 | 0.0 | 3.0 | 0.08 | 0.94 | 0.13 | 93 | 1001.6 |
| 20260503195830 | 60 | 249 | 0.0 | 1.0 | 0.04 | 0.91 | 0.12 | 93 | 1001.2 |
| 20260503195329 | 60 | 228 | 0.0 | 1.0 | 0.04 | 0.91 | 0.12 | 93 | 1001.1 |
| 20260503194847 | 60 | 275 | 0.0 | 1.0 | 0.04 | 0.91 | 0.12 | 93 | 1000.7 |
| 20260503194324 | 60 | 56 | 0.0 | 1.0 | 0.00 | 0.87 | 0.11 | 93 | 1000.7 |
| 20260503193823 | 60 | 56 | 0.0 | 0.0 | 0.00 | 0.87 | 0.11 | 93 | 1000.6 |
| 20260503193320 | 60 | 56 | 0.0 | 0.0 | 0.00 | 0.87 | 0.11 | 92 | 1000.5 |
| 20260503192818 | 60 | 56 | 0.0 | 0.0 | 0.00 | 0.87 | 0.11 | 92 | 1000.4 |
| 20260503192317 | 60 | 56 | 0.0 | 0.0 | 0.00 | 0.87 | 0.11 | 92 | 1000.4 |
| 20260503191814 | 60 | 56 | 0.0 | 0.0 | 0.00 | 0.87 | 0.11 | 92 | 1000.4 |
| 20260503191313 | 60 | 56 | 0.0 | 0.0 | 0.00 | 0.87 | 0.11 | 92 | 1000.5 |
| 20260503190832 | 60 | 56 | 0.0 | 1.0 | 0.00 | 0.87 | 0.11 | 92 | 1000.2 |
| 20260503190351 | 60 | 56 | 0.0 | 2.0 | 0.00 | 0.87 | 0.11 | 92 | 1000.3 |
| 20260503185829 | 60 | 53 | 0.0 | 3.0 | 0.00 | 0.87 | 0.11 | 92 | 1000.4 |
| 20260503185328 | 60 | 212 | 0.0 | 1.0 | 0.00 | 0.87 | 0.11 | 91 | 1000.6 |
| 20260503184824 | 60 | 211 | 0.0 | 3.0 | 0.00 | 0.87 | 0.11 | 91 | 1000.3 |
| 20260503184344 | 60 | 212 | 1.0 | 3.0 | 0.00 | 0.87 | 0.11 | 92 | 1000.3 |
| 20260503183821 | 60 | 71 | 0.0 | 3.0 | 0.00 | 0.87 | 0.11 | 92 | 1000.4 |
| 20260503183320 | 60 | 54 | 0.0 | 2.0 | 0.00 | 0.87 | 0.11 | 93 | 1000.3 |
| 20260503182840 | 60 | 51 | 0.0 | 3.0 | 0.04 | 0.87 | 0.11 | 93 | 1000.3 |
| 20260503182338 | 60 | 50 | 1.0 | 3.0 | 0.04 | 0.87 | 0.11 | 93 | 1000.3 |
| 20260503181837 | 60 | 60 | 0.0 | 6.0 | 0.04 | 0.87 | 0.11 | 93 | 1000.3 |
| 20260503181313 | 60 | 60 | 1.0 | 6.0 | 0.08 | 0.87 | 0.11 | 93 | 1000.3 |
| 20260503180832 | 59 | 57 | 0.0 | 1.0 | 0.08 | 0.87 | 0.11 | 92 | 1000.3 |
| 20260503180332 | 60 | 58 | 0.0 | 1.0 | 0.12 | 0.87 | 0.11 | 92 | 1000.2 |
| 20260503175851 | 60 | 56 | 0.0 | 3.0 | 0.12 | 0.87 | 0.11 | 92 | 1000.5 |